Vertical_Velocity
-1 -1 -1 -2 -1 -2 -1 -2 -2 -1 -1 -1 -1 -2 -1 0 -2 -2 3 -1 -2 -1 -1 -3 1 -1 -1 -1 -1 1 1 1 1 1 -2 1 1 1 1 8 5 2 4 5 3
-1 -1 -1 -1 -1 -1 -2 -1 -2 -3 -2 -2 -2 -3 -3 -0 -2 -1 -2 -2 -2 -1 -2 1 -1 -1 -1 -0 -1 -1 0 0 -2 -1 -3 -2 2 5 1 0 6 4 5 3 3
-1 -1 -2 -2 -2 -2 -2 -2 -1 -0 -2 -3 -1 -2 -1 -1 -2 -5 -2 -3 -4 -2 -3 -0 -3 0 1 2 -0 -1 2 0 -1 -1 -2 -1 1 0 1 -1 1 -0 6 0 3
-1 -2 -1 -2 -1 -0 -1 -1 -3 -3 -2 -1 -2 -3 -3 -3 -4 -3 -2 -3 -3 -2 -3 -2 -2 -2 -1 -2 -0 0 0 -1 4 5 1 0 -3 -0 1 2 -4 -3 -2 3 3
-0 -0 -2 -2 -2 -2 -1 -1 -0 -2 -2 -4 1 1 1 3 1 1 -3 -2 -5 -1 -2 -1 -1 -3 -4 -3 -2 -2 -3 -1 -1 -2 1 2 0 1 -2 -2 -1 -4 -0 -0 -3
-3 -3 -1 -2 -1 -2 -1 -1 -2 -4 -0 -2 -1 -1 -3 -1 -2 -2 1 -4 -1 -3 -3 -3 -4 -4 -2 -5 -3 -1 0 -3 -3 -1 -1 -5 3 5 -0 -5 1 -4 -4 -0 -2
-2 -3 -3 -3 -1 -1 -3 -1 -1 1 0 1 0 -0 -3 -1 -2 -1 -6 -1 -4 -3 -3 -4 -4 -1 -3 -1 -1 -2 -6 2 2 -1 -2 -2 1 3 -0 -3 -6 2 -2 -4 1
-2 -2 -4 -2 -2 -1 -2 -2 -2 -2 -4 0 -1 0 1 -2 -1 -2 1 -2 -1 -1 -2 -2 -3 -2 -4 -0 -4 -7 -3 -7 -2 -1 1 1 -14 1 1 -2 2 -0 -4 0 1
-2 -4 -2 -2 -2 -2 -1 -3 -1 -1 -3 1 1 2 -3 0 1 -1 -4 -1 -3 -5 -4 -3 -2 -4 -2 -7 -5 -2 -6 -6 -12 1 -2 7 -14 4 -4 -4 -4 -1 -4 0 -3
-2 -2 -2 -4 -3 -1 -0 -2 0 -0 -1 -1 -3 -3 3 -3 -2 -3 -4 -0 -1 -2 -2 -2 -3 -2 -3 -8 -2 -3 -7 -4 1 -8 7 0 2 2 0 -2 -2 -2 1 -4 -2
-3 -4 -3 -1 -3 -1 -2 -0 -3 -3 -2 -1 -2 1 1 -4 -0 1 -3 -1 -3 -4 -2 -2 -2 -6 -3 -2 2 1 1 2 5 -0 -6 2 -1 -1 -0 2 2 3 2 3 -3
-4 -4 -2 -4 -0 -4 -2 -1 -1 0 -0 1 0 -2 -2 -0 3 1 3 1 -1 -3 -5 -4 -5 -3 -0 -1 2 0 -1 -1 -2 4 -1 3 2 -2 0 -1 -4 -11 -9 -4 -0
-4 -1 -4 -3 -2 -2 -4 -3 -3 -0 -5 1 -1 0 -5 -3 -2 -3 -4 -2 -4 -5 -2 -2 -2 -3 -1 -1 -4 7 -3 -2 1 0 2 -2 -3 -1 6 3 2 3 -2 -5 -11
-5 -4 -1 1 -4 -1 -2 -3 -0 2 0 -4 -2 -3 -4 -2 -2 -7 -3 -2 -4 0 -0 -1 -3 -2 -1 2 -4 -9 3 1 4 3 -2 3 -5 1 -2 -7 -2 -5 -6 -5 -5
-0 -4 -4 3 -3 -1 -2 -3 -2 1 -5 -0 -3 -1 -4 -3 0 -4 -3 -3 -1 -2 1 -3 -3 -4 -4 -4 0 -8 3 -2 0 2 -1 -3 4 -7 -3 -7 -7 -3 -2 -3 -7
-2 -4 -0 -3 -2 -2 -1 -1 -2 -1 -5 -1 -0 0 -2 -0 -2 0 -3 -4 -1 -2 -2 -1 -3 -4 -3 2 1 -5 -1 -1 1 -0 -3 2 2 -2 -8 -6 -5 -0 -2 -5 -2
-2 -3 1 -4 0 -1 -2 -1 -1 1 2 0 -2 -1 -1 -1 -1 -1 -4 -8 -7 -6 -3 -1 -1 -1 -1 -1 4 -6 -10 -7 -9 -8 -4 4 -2 -4 -4 1 1 -1 -3 -2 -3
-3 -3 -0 -2 -6 -2 -3 -1 -1 -1 -4 -3 -2 -2 -0 -3 -3 -2 -2 -2 -0 -0 -1 -3 -4 -1 1 -4 2 -5 -2 -1 -2 -2 -3 -2 -2 1 2 -0 1 3 -2 -0 0
-1 -3 -2 -1 -3 -2 0 -5 -4 -0 -1 -0 -3 -1 0 0 1 -1 -2 -1 -2 -2 -3 -3 -2 1 -0 -1 1 -3 -6 3 1 2 1 -1 -1 1 2 5 2 -4 1 -2 -3
0 0 0 -0 -3 -1 -2 -2 -0 -0 0 0 -0 -1 -1 -1 -2 1 -1 -1 -2 -1 -1 -2 -6 -1 -1 1 2 -3 0 -0 1 -5 -3 -2 -1 -6 -9 -4 -3 -2 -4 2 0
-2 -2 -0 -1 -1 -1 -1 -1 -3 -2 -1 -1 1 0 -1 -2 1 -1 0 0 -1 -0 0 -2 -2 1 -1 1 -0 -4 -6 -1 1 2 -2 -0 -5 1 -1 1 -2 -3 -0 -0 2
-1 -1 -1 2 -7 -1 -1 -4 -3 0 -0 1 -2 -1 -3 -0 -3 -2 -1 -2 -2 3 1 -1 -1 -4 0 -1 2 -1 -1 -3 -0 -2 1 0 -7 -1 -1 -1 4 -1 1 -1 -2
-4 -1 -3 0 2 1 -2 -1 -2 -6 -2 -2 -0 -0 0 -2 -5 0 -1 0 -1 0 1 -0 -1 -6 -2 -1 3 3 -2 1 -1 1 -1 1 -4 -4 2 3 3 -0 3 1 2
-4 -5 -1 -1 -0 1 2 -0 -0 -2 1 -0 0 0 1 -0 -1 -3 -1 -3 -1 -1 1 0 1 0 -7 1 3 -0 3 0 -2 -0 -1 -6 -9 1 -1 1 3 1 1 3 3
-0 -0 8 -2 -5 1 2 4 5 4 -0 2 -3 3 -0 -2 1 -1 0 -1 -2 -3 -1 -0 -3 -1 2 -3 1 0 -0 2 -1 1 -3 -2 -5 -1 -3 -0 4 2 -2 3 6
0 -6 -9 -5 1 0 -0 -5 1 3 4 2 2 0 2 3 1 -2 2 4 2 -1 -1 -1 -1 -3 -5 -4 1 -2 2 0 -1 1 -4 1 -8 -2 -3 0 1 4 -1 -3 6
3 1 5 -1 -3 -5 -2 -2 -3 -2 -0 6 0 -2 2 3 2 2 1 1 2 1 3 1 -2 -0 -4 -1 2 -1 -2 -1 -2 -1 1 0 0 -1 -1 -0 2 2 1 -1 -4
Height
3162 3160 3158 3156 3153 3151 3148 3145 3142 3138 3135 3132 3130 3128 3125 3122 3119 3116 3116 3114 3112 3110 3108 3106 3104 3103 3102 3101 3100 3100 3100 3098 3097 3097 3096 3096 3095 3096 3097 3100 3100 3099 3097 3098 3098
3162 3160 3158 3155 3153 3149 3146 3143 3139 3136 3132 3129 3127 3125 3123 3121 3118 3116 3115 3112 3109 3107 3106 3105 3103 3101 3100 3099 3098 3098 3097 3095 3093 3091 3091 3091 3092 3091 3093 3094 3096 3095 3093 3093 3094
3162 3159 3156 3154 3150 3147 3143 3140 3137 3133 3130 3127 3124 3122 3120 3118 3117 3115 3113 3110 3108 3105 3103 3102 3100 3098 3097 3095 3095 3093 3093 3092 3090 3088 3087 3089 3089 3087 3086 3087 3090 3090 3089 3087 3087
3160 3157 3154 3151 3148 3144 3140 3137 3133 3130 3127 3125 3122 3120 3118 3117 3117 3114 3111 3109 3106 3103 3101 3100 3098 3096 3094 3092 3091 3091 3090 3088 3088 3086 3083 3082 3081 3082 3081 3081 3081 3081 3081 3082 3081
3159 3156 3153 3149 3146 3143 3138 3134 3131 3128 3125 3123 3122 3120 3119 3117 3115 3112 3110 3107 3104 3102 3100 3098 3095 3093 3091 3089 3088 3085 3084 3083 3081 3081 3078 3076 3076 3074 3073 3076 3074 3073 3073 3073 3074
3158 3155 3151 3148 3145 3141 3136 3133 3130 3126 3124 3122 3120 3119 3118 3117 3113 3110 3108 3105 3103 3099 3096 3094 3091 3090 3087 3085 3084 3082 3080 3078 3077 3075 3074 3071 3070 3069 3070 3069 3067 3065 3065 3066 3066
3157 3154 3150 3147 3143 3139 3135 3132 3129 3125 3122 3120 3118 3118 3116 3116 3112 3108 3105 3105 3102 3098 3095 3092 3088 3086 3084 3083 3081 3079 3077 3076 3075 3073 3069 3065 3063 3065 3064 3062 3060 3058 3058 3059 3059
3156 3152 3149 3145 3141 3138 3135 3131 3128 3125 3122 3120 3118 3117 3115 3112 3109 3107 3104 3101 3098 3095 3092 3089 3085 3083 3081 3082 3079 3077 3073 3070 3072 3069 3066 3062 3057 3060 3060 3057 3055 3052 3048 3048 3049
3155 3151 3147 3143 3139 3136 3133 3130 3126 3123 3121 3120 3119 3116 3115 3112 3109 3107 3104 3100 3098 3095 3092 3086 3083 3081 3080 3077 3076 3074 3072 3069 3064 3065 3062 3060 3056 3057 3054 3050 3046 3044 3043 3043 3043
3153 3150 3145 3141 3138 3135 3132 3128 3124 3122 3120 3118 3117 3118 3115 3112 3108 3103 3100 3097 3094 3090 3087 3084 3080 3080 3079 3077 3076 3072 3069 3066 3063 3061 3056 3056 3053 3050 3046 3043 3040 3038 3035 3035 3035
3151 3147 3143 3140 3136 3134 3131 3128 3127 3123 3119 3118 3117 3115 3112 3109 3106 3103 3100 3096 3092 3090 3085 3082 3082 3079 3078 3078 3076 3073 3069 3064 3060 3057 3054 3051 3048 3044 3043 3041 3037 3033 3030 3028 3027
3149 3145 3141 3137 3134 3132 3130 3128 3124 3123 3119 3117 3115 3114 3111 3107 3105 3101 3098 3096 3091 3087 3084 3083 3080 3079 3079 3077 3073 3070 3064 3061 3057 3056 3052 3046 3044 3043 3042 3038 3034 3027 3023 3019 3017
3147 3143 3138 3135 3133 3131 3128 3126 3122 3119 3118 3116 3113 3111 3108 3106 3102 3100 3097 3094 3090 3085 3082 3081 3082 3078 3078 3074 3068 3065 3061 3058 3054 3048 3045 3043 3041 3040 3041 3037 3031 3025 3017 3009 3005
3144 3140 3137 3133 3132 3128 3125 3123 3119 3116 3115 3116 3111 3107 3105 3103 3101 3098 3095 3093 3088 3086 3082 3082 3080 3079 3077 3072 3067 3061 3059 3054 3049 3048 3046 3045 3042 3039 3037 3034 3027 3018 3010 3003 2998
3141 3137 3134 3130 3128 3126 3124 3121 3118 3116 3115 3115 3110 3107 3105 3104 3101 3096 3093 3090 3087 3086 3085 3083 3081 3078 3076 3072 3066 3063 3056 3050 3047 3045 3046 3045 3044 3037 3035 3024 3019 3012 3004 2995 2989
3138 3136 3132 3129 3126 3123 3121 3119 3116 3117 3111 3110 3109 3105 3103 3102 3099 3096 3093 3091 3087 3084 3083 3081 3079 3076 3074 3071 3066 3061 3053 3048 3047 3046 3047 3046 3045 3037 3033 3028 3018 3012 3003 2993 2985
3137 3133 3131 3128 3126 3122 3119 3117 3116 3113 3114 3112 3108 3104 3102 3099 3096 3094 3090 3088 3086 3083 3082 3080 3078 3075 3073 3070 3066 3061 3053 3051 3053 3052 3051 3046 3045 3040 3036 3029 3019 3009 3001 2992 2986
3135 3132 3129 3126 3125 3121 3119 3117 3115 3114 3112 3110 3107 3103 3100 3097 3095 3093 3090 3087 3085 3082 3079 3079 3077 3076 3073 3071 3067 3063 3062 3062 3069 3064 3052 3046 3044 3040 3036 3028 3021 3013 3004 2996 2989
3133 3131 3128 3126 3124 3121 3120 3117 3116 3114 3111 3108 3104 3101 3100 3097 3096 3091 3088 3087 3085 3083 3081 3079 3077 3075 3072 3070 3069 3066 3064 3064 3061 3057 3055 3047 3044 3039 3034 3029 3021 3013 3006 2998 2991
3131 3128 3127 3124 3122 3120 3118 3116 3114 3112 3109 3106 3104 3102 3100 3097 3096 3093 3088 3087 3085 3083 3080 3079 3076 3075 3073 3071 3069 3067 3066 3064 3062 3065 3062 3046 3044 3040 3030 3024 3020 3014 3008 3001 2994
3128 3125 3124 3121 3119 3117 3115 3113 3112 3110 3108 3106 3103 3101 3099 3097 3094 3092 3090 3088 3086 3082 3080 3077 3077 3075 3072 3070 3067 3067 3065 3065 3063 3062 3061 3056 3045 3042 3036 3028 3022 3017 3010 3004 2998
3124 3123 3121 3118 3119 3116 3112 3110 3110 3107 3105 3102 3100 3098 3096 3096 3093 3091 3089 3087 3085 3083 3079 3076 3073 3070 3070 3068 3066 3065 3065 3064 3063 3062 3059 3057 3048 3043 3038 3031 3026 3020 3014 3008 3003
3120 3119 3118 3117 3114 3112 3111 3110 3106 3104 3104 3101 3098 3096 3094 3091 3093 3088 3086 3086 3083 3082 3079 3075 3072 3070 3068 3069 3065 3063 3063 3063 3061 3060 3056 3056 3047 3043 3040 3035 3029 3024 3018 3012 3007
3117 3115 3115 3112 3112 3110 3106 3104 3101 3099 3097 3096 3095 3092 3091 3088 3087 3086 3084 3082 3081 3079 3077 3074 3071 3070 3068 3066 3064 3059 3060 3059 3059 3058 3054 3050 3045 3043 3040 3037 3032 3028 3022 3017 3012
3113 3112 3110 3108 3107 3106 3104 3103 3100 3096 3095 3091 3090 3089 3088 3087 3084 3080 3080 3078 3077 3076 3074 3072 3069 3066 3063 3060 3058 3055 3055 3055 3054 3053 3052 3048 3044 3043 3040 3037 3034 3030 3026 3021 3017
3109 3107 3107 3105 3103 3100 3099 3099 3097 3094 3092 3089 3087 3085 3085 3082 3080 3079 3077 3075 3073 3071 3070 3069 3066 3062 3057 3055 3054 3050 3050 3049 3049 3048 3046 3045 3042 3041 3040 3037 3034 3032 3028 3025 3020
3106 3102 3098 3098 3096 3096 3095 3091 3090 3089 3088 3085 3083 3082 3082 3080 3077 3074 3072 3070 3069 3067 3065 3064 3062 3061 3054 3053 3050 3048 3047 3046 3046 3045 3043 3041 3041 3039 3038 3036 3034 3032 3030 3027 3024